This demonstration page uses our WeatherBlox Daily Observations layout. Learn more.

Left ArrowRight Arrow

39.12711, -84.51439

Hourly Observations for July 21, 2018

Temp ( °F °C ) Dew Point ( °F °C ) Humidity (%) Winds ( mph kmh ) Pressure ( in mb ) Visibility ( mi km ) Precip ( " mm )
12:03 am 00:03 Mostly Cloudy with Light Rain 66 18.9 65 18.3 96 96 VRB 6 9 29.83 1010 10 16 0.00 0.03
12:53 am 00:53 Partly Cloudy 66 18.9 65 18.3 96 96 S 8 13 29.81 1010 10 16 0.00 0.03
1:36 am 01:36 Mostly Cloudy with Light Rain 66 18.9 65 18.3 96 96 SW 5 7 29.80 1009 10 16 0.00 0.03
1:53 am 01:53 Cloudy with Light Rain 66 18.9 65 18.3 96 96 SSW 5 7 29.79 1009 10 16 0.00 0.03
2:53 am 02:53 Cloudy 66 18.9 65 18.3 96 96 S 7 11 29.77 1008 10 16 0.00 0.03
3:30 am 03:30 Cloudy 66 18.9 65 18.3 96 96 S 6 9 29.77 1008 10 16 0.00 0.00
3:53 am 03:53 Cloudy 66 18.9 66 18.9 100 100 S 5 7 29.75 1007 10 16 0.00 0.00
4:33 am 04:33 Cloudy 66 18.9 65 18.3 96 96 S 6 9 29.77 1008 10 16 0.00 0.00
4:53 am 04:53 Cloudy 66 18.9 65 18.3 96 96 S 3 6 29.76 1008 10 16 0.00 0.00
5:53 am 05:53 Cloudy 66 18.9 65 18.3 96 96 S 5 7 29.76 1008 10 16 0.00 0.00
6:53 am 06:53 Mostly Cloudy 65 18.3 65 18.3 100 100 S 5 7 29.76 1008 10 16 0.00 0.00
7:53 am 07:53 Cloudy 66 18.9 65 18.3 96 96 S 3 6 29.77 1008 10 16 0.00 0.00
8:53 am 08:53 Cloudy 67 19.4 66 18.9 97 97 SSW 9 15 29.78 1008 10 16 0.00 0.00
9:53 am 09:53 Cloudy 69 20.6 66 18.9 90 90 SW 9 15 29.79 1009 10 16 0.00 0.00
10:53 am 10:53 Cloudy 72 22.2 68 20 87 87 SSW 8 13 29.79 1009 10 16 0.00 0.00
11:53 am 11:53 Partly Cloudy 77 25 70 21.1 79 79 SSW 14 22 29.76 1008 10 16 0.00 0.00
12:01 pm 12:01 Mostly Cloudy 76 24.4 69 20.6 79 79 SW 15 24 29.77 1008 10 16 0.00 0.00
12:53 pm 12:53 Cloudy 76 24.4 68 20 77 77 SSW 10 17 29.75 1007 10 16 0.00 0.00
1:53 pm 13:53 Cloudy with Light Rain 74 23.3 69 20.6 85 85 WSW 10 17 29.74 1007 10 16 0.00 0.03
2:53 pm 14:53 Mostly Cloudy 77 25 69 20.6 77 77 W 9 15 29.73 1007 10 16 0.00 0.03
3:53 pm 15:53 Mostly Cloudy 78 25.6 68 20 71 71 WSW 9 15 29.71 1006 10 16 0.00 0.00
4:53 pm 16:53 Cloudy with Rain 70 21.1 69 20.6 97 97 WSW 15 24 29.73 1007 4 6 0.13 3.30
5:53 pm 17:53 Mostly Cloudy 72 22.2 70 21.1 94 94 S 5 7 29.72 1006 10 16 0.03 0.76
6:53 pm 18:53 Mostly Cloudy 73 22.8 71 21.7 94 94 SSE 5 7 29.72 1006 10 16 0.00 0.00
7:53 pm 19:53 Cloudy with Heavy Rain 72 22.2 71 21.7 97 97 Calm 29.72 1006 3 5 0.06 1.52
8:51 pm 20:51 Cloudy with Light Rain 72 22 72 22 100 100 SW 3 6 29.71 1006 4 6 0.03 0.76
8:53 pm 20:53 Cloudy with Light Rain 71 21.7 71 21.7 100 100 VRB 3 6 29.72 1006 4 6 0.03 0.76
9:34 pm 21:34 Cloudy with Nearby Thunderstorms 71 21.7 70 21.1 96 96 Calm 29.74 1007 5 8 0.02 0.51
9:53 pm 21:53 Cloudy with Light Rain 71 21.7 71 21.7 100 100 Calm 29.71 1006 5 8 0.03 0.76
10:32 pm 22:32 Cloudy 70 21.1 70 21.1 100 100 Calm 29.74 1007 8 13 0.00 0.03
10:53 pm 22:53 Cloudy 71 21.7 70 21.1 96 96 S 6 9 29.71 1006 9 14 0.00 0.03
11:02 pm 23:02 Cloudy 70 21.1 70 21.1 100 100 S 7 11 29.71 1006 9 14 0.00 0.00
11:53 pm 23:53 Cloudy 70 21.1 70 21.1 100 100 S 6 9 29.69 1006 10 16 0.02 0.51

Powered by AerisWeather